Weather History for Victoria, BC

Change the Weather History Date:

Saturday, November 2, 2013

  Actual Average Record
Temperature  
Mean Temperature 47 °F -  
Max Temperature 52 °F 49 °F 59 °F (2008)
Min Temperature 42 °F 36 °F 28 °F (2002)
Degree Days  
Heating Degree Days 18    
Moisture  
Dew Point 46 °F    
Average Humidity 93    
Maximum Humidity 100    
Minimum Humidity 81    
Precipitation  
Precipitation 0.67 in 0.18 in - ()
Sea Level Pressure  
Sea Level Pressure 29.63 in    
Wind  
Wind Speed 7 mph ()    
Max Wind Speed 26 mph    
Max Gust Speed 36 mph    
Visibility 12.0 miles    
Events Rain    
Averages and records for this station are not official NWS values.
T = Trace of Precipitation, MM = Missing Value Source: Averaged Metar Reports

Daily Weather History Graph

Daily Weather History Graph

Search for Another Location

Airport:

Trip Planner

Search our weather history database for the weather conditions in past years. The results will help you decide how hot, cold, wet, or windy it might be!

Date:

Astronomy

Nov. 02, 2013 Rise Set
Actual Time 8:02 AM PDT 5:51 PM PDT
Civil Twilight 7:29 AM PDT 6:24 PM PDT
Nautical Twilight 6:51 AM PDT 7:01 PM PDT
Astronomical Twilight 6:15 AM PDT 7:38 PM PDT
Moon 7:02 AM PDT (11/2) 5:28 PM PDT (11/2)
Length of Visible Light 10h 55m
Length of Day
9h 49m
Waning Crescent, 1% of the Moon is Illuminated
Nov 2
Waning Crescent
Nov 3
New
Nov 9
First Quarter
Nov 17
Full
Nov 25
Last Quarter

Hourly Weather History & Observations

Time (PDT) Temp. Windchill Dew Point Humidity Pressure Visibility Wind Dir Wind Speed Gust Speed Precip Events Conditions
12:00 AM 50.0 °F - 50.0 °F 100% 29.80 in 12.0 mi NNE 3.5 mph - N/A Rain Light Rain
12:33 AM 50.0 °F - 50.0 °F 100% 29.78 in 12.0 mi North 2.3 mph - N/A Rain Rain
12:42 AM 50.0 °F - 50.0 °F 100% 29.77 in 12.0 mi North 3.5 mph - N/A Rain Light Rain
1:00 AM 50.0 °F - 50.0 °F 100% 29.75 in 12.0 mi North 4.6 mph - N/A   Light Drizzle
1:27 AM 50.0 °F - 50.0 °F 100% 29.75 in 12.0 mi North 2.3 mph - N/A Rain Light Rain
2:00 AM 50.0 °F - 50.0 °F 100% 29.71 in 12.0 mi ENE 4.6 mph - N/A Rain Light Rain
3:00 AM 50.0 °F - 50.0 °F 100% 29.68 in 12.0 mi North 4.6 mph - N/A Rain Light Rain
3:37 AM 50.0 °F - 50.0 °F 100% 29.64 in 12.0 mi North 3.5 mph - N/A Rain Rain
3:44 AM 50.0 °F - 50.0 °F 100% 29.63 in 12.0 mi NE 3.5 mph - N/A Rain Heavy Rain
4:00 AM 50.0 °F - 50.0 °F 100% 29.62 in 12.0 mi NE 8.1 mph - N/A Rain Rain
4:26 AM 50.0 °F - 50.0 °F 100% 29.59 in 12.0 mi NE 9.2 mph - N/A Rain Light Rain
5:00 AM 50 °F - 49 °F 95% 29.54 in 12 mi East 9.2 mph - - Rain Light Rain
5:00 AM 50.0 °F - 48.2 °F 94% 29.54 in 12.0 mi ENE 8.1 mph - N/A Rain Light Rain
5:45 AM 50.0 °F - 50.0 °F 100% 29.52 in 12.0 mi NE 4.6 mph - N/A   Overcast
6:00 AM 50.0 °F - 50.0 °F 100% 29.50 in 12.0 mi ENE 8.1 mph - N/A   Overcast
7:00 AM 51.8 °F - 50.0 °F 94% 29.45 in 15.0 mi East 12.7 mph 19.6 mph N/A   Overcast
8:00 AM 51.8 °F - 50.0 °F 94% 29.41 in 15.0 mi ENE 11.5 mph - N/A Rain Light Rain
8:17 AM 51.8 °F - 50.0 °F 94% 29.40 in 10.0 mi NNE 8.1 mph - N/A Rain Rain
8:24 AM 51.8 °F - 50.0 °F 94% 29.40 in 8.0 mi North 11.5 mph - N/A Rain Heavy Rain
8:31 AM 48.2 °F - 46.4 °F 93% 29.41 in 1.0 mi North 25.3 mph 33.4 mph N/A Rain Heavy Rain
9:00 AM 46.4 °F 44.3 °F 42.8 °F 87% 29.42 in 3.0 mi Variable 4.6 mph 20.7 mph N/A Rain Heavy Rain
9:14 AM 46.4 °F 42.9 °F 42.8 °F 87% 29.42 in 6.0 mi NW 6.9 mph - N/A Rain Light Rain
10:00 AM 44.6 °F 35.3 °F 41.0 °F 87% 29.44 in 12.0 mi NW 26.5 mph 35.7 mph N/A Rain Light Rain
11:00 AM 44 °F - 41 °F 87% 29.49 in 19 mi WNW 20.7 mph - - Rain Light Rain
11:00 AM 44.6 °F 36.9 °F 41.0 °F 87% 29.49 in 20.0 mi WNW 18.4 mph 29.9 mph N/A Rain Light Rain
12:00 PM 44.6 °F 38.8 °F 42.8 °F 93% 29.55 in 10.0 mi WNW 11.5 mph 19.6 mph N/A Rain Light Rain
12:22 PM 44.6 °F 40.7 °F 42.8 °F 93% 29.57 in 6.0 mi West 6.9 mph - N/A Rain Rain
12:34 PM 44.6 °F 37.8 °F 41.0 °F 87% 29.59 in 5.0 mi WSW 15.0 mph - N/A Rain Heavy Rain
1:00 PM 42.8 °F 35.8 °F 41.0 °F 93% 29.60 in 5.0 mi WSW 13.8 mph 21.9 mph N/A Rain Rain
1:24 PM 42.8 °F 37.0 °F 41.0 °F 93% 29.62 in 6.0 mi WSW 10.4 mph - N/A Rain Light Rain
2:00 PM 44.6 °F 40.7 °F 42.8 °F 93% 29.63 in 20.0 mi WSW 6.9 mph - N/A Rain Light Rain
2:44 PM 44.6 °F 42.2 °F 42.8 °F 93% 29.66 in 30.0 mi West 4.6 mph - N/A   Mostly Cloudy
3:00 PM 44.6 °F 40.7 °F 42.8 °F 93% 29.67 in 30.0 mi SW 6.9 mph - N/A   Mostly Cloudy
4:00 PM 46.4 °F 44.3 °F 44.6 °F 93% 29.70 in 30.0 mi SE 4.6 mph - N/A   Mostly Cloudy
5:00 PM 46 °F - 44 °F 92% 29.73 in 28 mi NNE 4.6 mph - -   Partly Cloudy
5:00 PM 46.4 °F 44.3 °F 44.6 °F 93% 29.73 in 30.0 mi NNE 4.6 mph - N/A   Mostly Cloudy
6:00 PM 44.6 °F - 44.6 °F 100% 29.75 in 30.0 mi Variable 2.3 mph - N/A   Mostly Cloudy
7:00 PM 46.4 °F 41.9 °F 41.0 °F 81% 29.77 in 30.0 mi WSW 9.2 mph - N/A   Mostly Cloudy
8:00 PM 46.4 °F 43.5 °F 41.0 °F 81% 29.80 in 30.0 mi West 5.8 mph - N/A   Overcast
8:09 PM 46.4 °F 45.2 °F 41.0 °F 81% 29.81 in 30.0 mi West 3.5 mph - N/A Rain Light Rain
9:00 PM 46.4 °F 44.3 °F 41.0 °F 81% 29.81 in 20.0 mi West 4.6 mph - N/A   Overcast
10:00 PM 44.6 °F 40.7 °F 41.0 °F 87% 29.84 in 20.0 mi West 6.9 mph - N/A   Overcast
11:00 PM 44 °F - 42 °F 88% 29.86 in 19 mi West 8.1 mph - -   Partly Cloudy
11:00 PM 44.6 °F 40.2 °F 41.0 °F 87% 29.85 in 20.0 mi West 8.1 mph - N/A   Mostly Cloudy